Time,TemperatureF,DewpointF,PressureIn,WindDirection,WindDirectionDegrees,WindSpeedMPH,WindSpeedGustMPH,Humidity,HourlyPrecipIn,Conditions,Clouds,dailyrainin,SoftwareType,DateUTC
2013-02-04 00:02:00,48.2,41.7,29.59,SSE,157,0.0,0.0,78,0.00,,---,0.00,VWS V14.00,2013-02-04 08:02:00,
2013-02-04 00:07:00,48.4,41.5,29.59,SSE,157,0.0,0.0,77,0.00,,---,0.00,VWS V14.00,2013-02-04 08:07:00,
2013-02-04 00:12:00,48.4,41.5,29.59,SSE,157,0.0,0.0,77,0.00,,---,0.00,VWS V14.00,2013-02-04 08:12:00,
2013-02-04 00:17:00,48.4,41.2,29.59,SSE,158,0.0,0.0,76,0.00,,---,0.00,VWS V14.00,2013-02-04 08:17:00,
2013-02-04 00:22:00,48.2,41.0,29.59,SSE,158,0.0,0.0,76,0.00,,---,0.00,VWS V14.00,2013-02-04 08:22:00,
2013-02-04 00:27:00,48.2,41.0,29.59,SSE,158,0.0,0.0,76,0.00,,---,0.00,VWS V14.00,2013-02-04 08:27:00,
2013-02-04 00:32:00,48.4,41.2,29.59,SSE,158,0.0,0.0,76,0.00,,---,0.00,VWS V14.00,2013-02-04 08:32:00,
2013-02-04 00:37:00,48.2,41.0,29.59,SSE,158,0.0,0.0,76,0.00,,---,0.00,VWS V14.00,2013-02-04 08:37:00,
2013-02-04 00:42:00,48.2,41.0,29.59,South,176,0.0,0.0,76,0.00,,---,0.00,VWS V14.00,2013-02-04 08:42:00,
2013-02-04 00:47:00,48.2,41.0,29.59,South,176,0.0,0.0,76,0.00,,---,0.00,VWS V14.00,2013-02-04 08:47:00,
2013-02-04 00:52:00,48.2,41.0,29.59,SSE,156,0.0,0.0,76,0.00,,---,0.00,VWS V14.00,2013-02-04 08:52:00,
2013-02-04 00:57:00,48.0,40.8,29.59,SSE,164,0.0,0.0,76,0.00,,---,0.00,VWS V14.00,2013-02-04 08:57:00,
2013-02-04 01:02:00,47.7,40.8,29.59,South,179,0.0,0.0,77,0.00,,---,0.00,VWS V14.00,2013-02-04 09:02:00,
2013-02-04 01:07:00,47.8,41.0,29.59,South,178,0.0,0.0,77,0.00,,---,0.00,VWS V14.00,2013-02-04 09:07:00,
2013-02-04 01:12:00,47.8,41.0,29.59,South,186,0.0,0.0,77,0.00,,---,0.00,VWS V14.00,2013-02-04 09:12:00,
2013-02-04 01:17:00,47.7,40.8,29.59,SSE,151,0.0,0.0,77,0.00,,---,0.00,VWS V14.00,2013-02-04 09:17:00,
2013-02-04 01:22:00,47.7,40.8,29.59,SSE,167,0.0,0.0,77,0.00,,---,0.00,VWS V14.00,2013-02-04 09:22:00,
2013-02-04 01:27:00,47.7,40.8,29.59,South,173,0.0,0.0,77,0.00,,---,0.00,VWS V14.00,2013-02-04 09:27:00,
2013-02-04 01:32:00,47.7,40.8,29.59,South,170,0.0,0.0,77,0.00,,---,0.00,VWS V14.00,2013-02-04 09:32:00,
2013-02-04 01:37:00,47.7,40.8,29.59,SSW,196,0.0,0.0,77,0.00,,---,0.00,VWS V14.00,2013-02-04 09:37:00,
2013-02-04 01:42:00,47.7,40.8,29.59,South,183,0.0,0.0,77,0.00,,---,0.00,VWS V14.00,2013-02-04 09:42:00,
2013-02-04 01:47:00,47.7,40.8,29.59,South,182,0.0,0.0,77,0.00,,---,0.00,VWS V14.00,2013-02-04 09:47:00,
2013-02-04 01:52:00,47.8,41.0,29.59,SSW,196,0.0,0.0,77,0.00,,---,0.00,VWS V14.00,2013-02-04 09:52:00,
2013-02-04 01:57:00,47.8,41.0,29.59,SSW,193,0.0,0.0,77,0.00,,---,0.00,VWS V14.00,2013-02-04 09:57:00,
2013-02-04 02:02:00,47.8,41.0,29.59,SSW,193,0.0,0.0,77,0.00,,---,0.00,VWS V14.00,2013-02-04 10:02:00,
2013-02-04 02:07:00,47.8,41.0,29.59,South,189,0.0,0.0,77,0.00,,---,0.00,VWS V14.00,2013-02-04 10:07:00,
2013-02-04 02:12:00,47.8,41.0,29.59,SE,129,0.0,0.0,77,0.00,,---,0.00,VWS V14.00,2013-02-04 10:12:00,
2013-02-04 02:17:00,47.5,40.6,29.59,SSE,153,0.0,0.0,77,0.00,,---,0.00,VWS V14.00,2013-02-04 10:17:00,
2013-02-04 02:22:00,47.5,40.6,29.59,South,171,0.0,0.0,77,0.00,,---,0.00,VWS V14.00,2013-02-04 10:22:00,
2013-02-04 02:27:00,47.3,40.5,29.59,South,172,0.0,0.0,77,0.00,,---,0.00,VWS V14.00,2013-02-04 10:27:00,
2013-02-04 02:32:00,47.5,41.0,29.59,South,170,0.0,0.0,78,0.00,,---,0.00,VWS V14.00,2013-02-04 10:32:00,
2013-02-04 02:37:00,47.5,41.0,29.59,South,172,0.0,0.0,78,0.00,,---,0.00,VWS V14.00,2013-02-04 10:37:00,
2013-02-04 02:42:00,47.5,41.0,29.59,South,171,0.0,0.0,78,0.00,,---,0.00,VWS V14.00,2013-02-04 10:42:00,
2013-02-04 02:47:00,47.7,41.2,29.59,South,171,0.0,0.0,78,0.00,,---,0.00,VWS V14.00,2013-02-04 10:47:00,
2013-02-04 02:52:00,47.7,41.2,29.59,South,171,0.0,0.0,78,0.00,,---,0.00,VWS V14.00,2013-02-04 10:52:00,
2013-02-04 02:57:00,47.7,41.2,29.59,South,171,0.0,0.0,78,0.00,,---,0.00,VWS V14.00,2013-02-04 10:57:00,
2013-02-04 03:02:00,47.7,41.2,29.59,South,171,0.0,0.0,78,0.00,,---,0.00,VWS V14.00,2013-02-04 11:02:00,
2013-02-04 03:07:00,47.5,41.0,29.59,ESE,120,0.0,0.0,78,0.00,,---,0.00,VWS V14.00,2013-02-04 11:07:00,
2013-02-04 03:12:00,47.5,41.0,29.59,East,99,0.0,0.0,78,0.00,,---,0.00,VWS V14.00,2013-02-04 11:12:00,
2013-02-04 03:17:00,47.3,40.8,29.59,East,97,0.0,0.0,78,0.00,,---,0.00,VWS V14.00,2013-02-04 11:17:00,
2013-02-04 03:22:00,47.3,40.8,29.59,East,97,0.0,0.0,78,0.00,,---,0.00,VWS V14.00,2013-02-04 11:22:00,
2013-02-04 03:27:00,47.3,40.8,29.59,SSE,166,0.0,0.0,78,0.00,,---,0.00,VWS V14.00,2013-02-04 11:27:00,
2013-02-04 03:32:00,47.1,41.0,29.59,South,185,0.0,0.0,79,0.00,,---,0.00,VWS V14.00,2013-02-04 11:32:00,
2013-02-04 03:38:00,47.1,41.0,29.59,South,183,0.0,0.0,79,0.00,,---,0.00,VWS V14.00,2013-02-04 11:38:00,
2013-02-04 03:43:00,47.1,41.0,29.59,South,183,0.0,0.0,79,0.00,,---,0.00,VWS V14.00,2013-02-04 11:43:00,
2013-02-04 03:48:00,47.1,41.0,29.59,South,171,0.0,0.0,79,0.00,,---,0.00,VWS V14.00,2013-02-04 11:48:00,
2013-02-04 03:53:00,46.9,40.8,29.59,SE,145,0.0,0.0,79,0.00,,---,0.00,VWS V14.00,2013-02-04 11:53:00,
2013-02-04 03:58:00,46.9,40.8,29.59,South,172,0.0,0.0,79,0.00,,---,0.00,VWS V14.00,2013-02-04 11:58:00,
2013-02-04 04:03:00,47.1,41.0,29.59,ENE,64,0.0,0.0,79,0.00,,---,0.00,VWS V14.00,2013-02-04 12:03:00,
2013-02-04 04:08:00,47.1,41.0,29.59,SSE,149,0.0,0.0,79,0.00,,---,0.00,VWS V14.00,2013-02-04 12:08:00,
2013-02-04 04:13:00,46.9,40.8,29.59,South,174,0.0,0.0,79,0.00,,---,0.00,VWS V14.00,2013-02-04 12:13:00,
2013-02-04 04:18:00,46.9,40.8,29.59,SE,125,0.0,0.0,79,0.00,,---,0.00,VWS V14.00,2013-02-04 12:18:00,
2013-02-04 04:23:00,46.6,40.4,29.56,SSE,168,0.0,0.0,79,0.00,,---,0.00,VWS V14.00,2013-02-04 12:23:00,
2013-02-04 04:28:00,46.6,40.8,29.56,SE,140,0.0,0.0,80,0.00,,---,0.00,VWS V14.00,2013-02-04 12:28:00,
2013-02-04 04:33:00,46.4,40.6,29.56,SSE,156,0.0,0.0,80,0.00,,---,0.00,VWS V14.00,2013-02-04 12:33:00,
2013-02-04 04:38:00,46.2,40.4,29.56,SSE,150,0.0,0.0,80,0.00,,---,0.00,VWS V14.00,2013-02-04 12:38:00,
2013-02-04 04:43:00,46.2,40.7,29.56,SSW,212,0.0,0.0,81,0.00,,---,0.00,VWS V14.00,2013-02-04 12:43:00,
2013-02-04 04:48:00,46.2,40.7,29.56,SE,140,0.0,0.0,81,0.00,,---,0.00,VWS V14.00,2013-02-04 12:48:00,
2013-02-04 04:53:00,46.2,40.7,29.56,East,90,0.0,0.0,81,0.00,,---,0.00,VWS V14.00,2013-02-04 12:53:00,
2013-02-04 04:58:00,46.2,40.7,29.56,SSE,157,0.0,0.0,81,0.00,,---,0.00,VWS V14.00,2013-02-04 12:58:00,
2013-02-04 05:03:00,46.2,40.7,29.56,SSE,150,0.0,0.0,81,0.00,,---,0.00,VWS V14.00,2013-02-04 13:03:00,
2013-02-04 05:08:00,46.2,40.7,29.56,South,178,0.0,0.0,81,0.00,,---,0.00,VWS V14.00,2013-02-04 13:08:00,
2013-02-04 05:13:00,46.2,40.7,29.56,SSE,159,0.0,0.0,81,0.00,,---,0.00,VWS V14.00,2013-02-04 13:13:00,
2013-02-04 05:18:00,46.2,40.7,29.56,SSE,148,0.0,0.0,81,0.00,,---,0.00,VWS V14.00,2013-02-04 13:18:00,
2013-02-04 05:23:00,46.2,40.4,29.56,South,172,0.0,0.0,80,0.00,,---,0.00,VWS V14.00,2013-02-04 13:23:00,
2013-02-04 05:28:00,46.2,40.4,29.56,SE,142,0.0,0.0,80,0.00,,---,0.00,VWS V14.00,2013-02-04 13:28:00,
2013-02-04 05:33:00,46.4,40.6,29.56,SE,143,0.0,0.0,80,0.00,,---,0.00,VWS V14.00,2013-02-04 13:33:00,
2013-02-04 05:38:00,46.4,40.6,29.56,SSE,168,0.0,0.0,80,0.00,,---,0.00,VWS V14.00,2013-02-04 13:38:00,
2013-02-04 05:43:00,46.4,40.6,29.56,SW,216,0.0,0.0,80,0.00,,---,0.00,VWS V14.00,2013-02-04 13:43:00,
2013-02-04 05:48:00,46.4,40.6,29.56,SSW,203,0.0,0.0,80,0.00,,---,0.00,VWS V14.00,2013-02-04 13:48:00,
2013-02-04 05:53:00,46.4,40.6,29.56,SSE,147,0.0,0.0,80,0.00,,---,0.00,VWS V14.00,2013-02-04 13:53:00,
2013-02-04 05:58:00,46.4,40.6,29.56,SSE,149,0.0,0.0,80,0.00,,---,0.00,VWS V14.00,2013-02-04 13:58:00,
2013-02-04 06:03:00,46.6,40.8,29.56,SSE,149,0.0,0.0,80,0.00,,---,0.00,VWS V14.00,2013-02-04 14:03:00,
2013-02-04 06:08:00,46.8,40.9,29.56,SSE,160,0.0,0.0,80,0.00,,---,0.00,VWS V14.00,2013-02-04 14:08:00,
2013-02-04 06:13:00,46.8,40.6,29.56,ESE,117,0.0,0.0,79,0.00,,---,0.00,VWS V14.00,2013-02-04 14:13:00,
2013-02-04 06:18:00,46.8,40.6,29.56,ESE,118,0.0,0.0,79,0.00,,---,0.00,VWS V14.00,2013-02-04 14:18:00,
2013-02-04 06:23:00,46.8,40.6,29.56,ESE,117,0.0,0.0,79,0.00,,---,0.00,VWS V14.00,2013-02-04 14:23:00,
2013-02-04 06:28:00,46.8,40.3,29.56,SE,124,0.0,0.0,78,0.00,,---,0.00,VWS V14.00,2013-02-04 14:28:00,
2013-02-04 06:33:00,46.6,40.1,29.56,SSE,162,0.0,0.0,78,0.00,,---,0.00,VWS V14.00,2013-02-04 14:33:00,
2013-02-04 06:38:00,46.6,40.1,29.56,SE,129,0.0,0.0,78,0.00,,---,0.00,VWS V14.00,2013-02-04 14:38:00,
2013-02-04 06:43:00,46.4,39.9,29.56,SSE,168,0.0,0.0,78,0.00,,---,0.00,VWS V14.00,2013-02-04 14:43:00,
2013-02-04 06:48:00,46.4,39.9,29.56,SSE,167,0.0,0.0,78,0.00,,---,0.00,VWS V14.00,2013-02-04 14:48:00,
2013-02-04 06:53:00,46.4,39.6,29.53,South,169,0.0,0.0,77,0.00,,---,0.00,VWS V14.00,2013-02-04 14:53:00,
2013-02-04 06:58:00,46.6,39.8,29.53,SSE,158,0.0,0.0,77,0.00,,---,0.00,VWS V14.00,2013-02-04 14:58:00,
2013-02-04 07:03:00,46.6,40.1,29.53,SE,135,0.0,0.0,78,0.00,,---,0.00,VWS V14.00,2013-02-04 15:03:00,
2013-02-04 07:08:00,46.6,40.1,29.53,SE,131,0.0,0.0,78,0.00,,---,0.00,VWS V14.00,2013-02-04 15:08:00,
2013-02-04 07:13:00,46.6,40.1,29.53,SE,135,0.0,0.0,78,0.00,,---,0.00,VWS V14.00,2013-02-04 15:13:00,
2013-02-04 07:18:00,46.6,40.1,29.53,SE,138,0.0,0.0,78,0.00,,---,0.00,VWS V14.00,2013-02-04 15:18:00,
2013-02-04 07:23:00,46.8,40.3,29.56,SE,135,0.0,0.0,78,0.00,,---,0.00,VWS V14.00,2013-02-04 15:23:00,
2013-02-04 07:28:00,46.6,39.8,29.56,SE,136,0.0,0.0,77,0.00,,---,0.00,VWS V14.00,2013-02-04 15:28:00,
2013-02-04 07:33:00,46.8,39.9,29.56,SE,135,0.0,0.0,77,0.00,,---,0.00,VWS V14.00,2013-02-04 15:33:00,
2013-02-04 07:38:00,46.8,39.9,29.56,SE,135,0.0,0.0,77,0.00,,---,0.00,VWS V14.00,2013-02-04 15:38:00,
2013-02-04 07:43:00,46.9,40.1,29.56,SE,135,0.0,0.0,77,0.00,,---,0.00,VWS V14.00,2013-02-04 15:43:00,
2013-02-04 07:48:00,47.1,40.3,29.56,SE,135,0.0,0.0,77,0.00,,---,0.00,VWS V14.00,2013-02-04 15:48:00,
2013-02-04 07:53:00,47.3,40.5,29.56,SE,135,0.0,0.0,77,0.00,,---,0.00,VWS V14.00,2013-02-04 15:53:00,
2013-02-04 07:58:00,47.1,40.0,29.56,SE,130,0.0,0.0,76,0.00,,---,0.00,VWS V14.00,2013-02-04 15:58:00,
2013-02-04 08:03:00,46.9,39.8,29.56,ESE,105,0.0,0.0,76,0.00,,---,0.00,VWS V14.00,2013-02-04 16:03:00,
2013-02-04 08:08:00,46.9,39.8,29.56,ESE,106,0.0,0.0,76,0.00,,---,0.00,VWS V14.00,2013-02-04 16:08:00,
2013-02-04 08:13:00,47.1,40.3,29.56,ESE,106,0.0,0.0,77,0.00,,---,0.00,VWS V14.00,2013-02-04 16:13:00,
2013-02-04 08:18:00,47.3,40.5,29.56,SSE,149,0.0,0.0,77,0.00,,---,0.00,VWS V14.00,2013-02-04 16:18:00,
2013-02-04 08:23:00,47.3,40.1,29.56,ESE,117,0.0,0.0,76,0.00,,---,0.00,VWS V14.00,2013-02-04 16:23:00,
2013-02-04 08:28:00,47.3,40.1,29.56,ESE,117,0.0,0.0,76,0.00,,---,0.00,VWS V14.00,2013-02-04 16:28:00,
2013-02-04 08:33:00,47.3,40.1,29.56,SSE,149,0.0,0.0,76,0.00,,---,0.00,VWS V14.00,2013-02-04 16:33:00,
2013-02-04 08:38:00,47.1,40.0,29.56,SE,141,0.0,0.0,76,0.00,,---,0.00,VWS V14.00,2013-02-04 16:38:00,
2013-02-04 08:43:00,47.3,40.1,29.56,ESE,118,0.0,0.0,76,0.00,,---,0.00,VWS V14.00,2013-02-04 16:43:00,
2013-02-04 08:48:00,47.5,40.3,29.56,ESE,120,0.0,0.0,76,0.00,,---,0.00,VWS V14.00,2013-02-04 16:48:00,
2013-02-04 08:53:00,47.5,40.3,29.56,ESE,121,0.0,0.0,76,0.00,,---,0.00,VWS V14.00,2013-02-04 16:53:00,
2013-02-04 08:58:00,47.3,40.1,29.56,South,176,0.0,0.0,76,0.00,,---,0.00,VWS V14.00,2013-02-04 16:58:00,
2013-02-04 09:03:00,47.3,40.1,29.56,South,169,0.0,0.0,76,0.00,,---,0.00,VWS V14.00,2013-02-04 17:03:00,
2013-02-04 09:08:00,47.3,40.1,29.56,SE,146,0.0,0.0,76,0.00,,---,0.00,VWS V14.00,2013-02-04 17:08:00,
2013-02-04 09:13:00,47.5,40.3,29.56,East,81,0.0,0.0,76,0.00,,---,0.00,VWS V14.00,2013-02-04 17:13:00,
2013-02-04 09:18:00,47.3,40.1,29.56,South,190,0.0,0.0,76,0.00,,---,0.00,VWS V14.00,2013-02-04 17:18:00,
2013-02-04 09:23:00,47.3,40.1,29.56,SSE,148,0.0,0.0,76,0.00,,---,0.00,VWS V14.00,2013-02-04 17:23:00,
2013-02-04 09:28:00,47.3,40.1,29.56,ESE,119,0.0,0.0,76,0.00,,---,0.00,VWS V14.00,2013-02-04 17:28:00,
2013-02-04 09:33:00,47.3,39.8,29.56,South,173,0.0,0.0,75,0.00,,---,0.00,VWS V14.00,2013-02-04 17:33:00,
2013-02-04 09:38:00,47.3,40.1,29.53,South,171,0.0,0.0,76,0.00,,---,0.00,VWS V14.00,2013-02-04 17:38:00,
2013-02-04 09:43:00,47.5,40.3,29.53,ESE,112,0.0,0.0,76,0.00,,---,0.00,VWS V14.00,2013-02-04 17:43:00,
2013-02-04 09:48:00,47.5,40.0,29.53,SSE,151,0.0,0.0,75,0.00,,---,0.00,VWS V14.00,2013-02-04 17:48:00,
2013-02-04 09:53:00,47.7,40.1,29.56,ESE,118,0.0,0.0,75,0.00,,---,0.00,VWS V14.00,2013-02-04 17:53:00,
2013-02-04 09:58:00,47.8,40.7,29.56,SE,131,0.0,0.0,76,0.00,,---,0.00,VWS V14.00,2013-02-04 17:58:00,
2013-02-04 10:03:00,47.8,40.3,29.56,SE,136,0.0,0.0,75,0.00,,---,0.00,VWS V14.00,2013-02-04 18:03:00,
2013-02-04 10:09:00,48.0,40.5,29.56,SE,130,0.0,0.0,75,0.00,,---,0.00,VWS V14.00,2013-02-04 18:09:00,
2013-02-04 10:14:00,48.0,40.5,29.56,ESE,120,0.0,0.0,75,0.00,,---,0.00,VWS V14.00,2013-02-04 18:14:00,
2013-02-04 10:19:00,48.0,40.5,29.56,SE,124,0.0,0.0,75,0.00,,---,0.00,VWS V14.00,2013-02-04 18:19:00,
2013-02-04 10:24:00,48.2,40.3,29.56,SE,135,0.0,0.0,74,0.00,,---,0.00,VWS V14.00,2013-02-04 18:24:00,
2013-02-04 10:29:00,48.2,40.3,29.56,SE,127,0.0,0.0,74,0.00,,---,0.00,VWS V14.00,2013-02-04 18:29:00,
2013-02-04 10:34:00,48.2,40.3,29.56,ESE,115,0.0,0.0,74,0.00,,---,0.00,VWS V14.00,2013-02-04 18:34:00,
2013-02-04 10:39:00,48.0,39.8,29.56,SE,134,0.0,0.0,73,0.00,,---,0.00,VWS V14.00,2013-02-04 18:39:00,
2013-02-04 10:44:00,48.0,40.1,29.56,SE,134,0.0,0.0,74,0.00,,---,0.00,VWS V14.00,2013-02-04 18:44:00,
2013-02-04 10:49:00,48.0,40.1,29.56,SSE,156,0.0,0.0,74,0.00,,---,0.00,VWS V14.00,2013-02-04 18:49:00,
2013-02-04 10:54:00,48.0,40.1,29.56,SSE,155,0.0,0.0,74,0.00,,---,0.00,VWS V14.00,2013-02-04 18:54:00,
2013-02-04 10:59:00,48.0,39.4,29.56,ESE,116,0.0,0.0,72,0.00,,---,0.00,VWS V14.00,2013-02-04 18:59:00,
2013-02-04 11:04:00,48.0,39.4,29.56,SE,125,0.0,0.0,72,0.00,,---,0.00,VWS V14.00,2013-02-04 19:04:00,
2013-02-04 11:09:00,48.0,39.8,29.56,ESE,113,0.0,0.0,73,0.00,,---,0.00,VWS V14.00,2013-02-04 19:09:00,
2013-02-04 11:14:00,48.0,39.8,29.56,ESE,113,0.0,0.0,73,0.00,,---,0.00,VWS V14.00,2013-02-04 19:14:00,
2013-02-04 11:19:00,48.2,40.0,29.53,SE,141,0.0,0.0,73,0.00,,---,0.00,VWS V14.00,2013-02-04 19:19:00,
2013-02-04 11:24:00,48.4,39.8,29.53,SSE,151,0.0,0.0,72,0.00,,---,0.00,VWS V14.00,2013-02-04 19:24:00,
2013-02-04 11:29:00,48.7,40.5,29.53,SSE,147,0.0,0.0,73,0.00,,---,0.00,VWS V14.00,2013-02-04 19:29:00,
2013-02-04 11:34:00,48.9,40.3,29.53,South,184,0.0,0.0,72,0.00,,---,0.00,VWS V14.00,2013-02-04 19:34:00,
2013-02-04 11:39:00,49.3,40.7,29.53,SSE,160,0.0,0.0,72,0.00,,---,0.00,VWS V14.00,2013-02-04 19:39:00,
2013-02-04 11:44:00,49.5,40.8,29.53,ESE,113,0.0,0.0,72,0.00,,---,0.00,VWS V14.00,2013-02-04 19:44:00,
2013-02-04 11:49:00,49.6,40.3,29.53,SE,136,0.0,0.0,70,0.00,,---,0.00,VWS V14.00,2013-02-04 19:49:00,
2013-02-04 11:54:00,49.6,39.5,29.53,SE,135,0.0,0.0,68,0.00,,---,0.00,VWS V14.00,2013-02-04 19:54:00,
2013-02-04 11:59:00,49.6,39.9,29.53,ESE,105,0.0,0.0,69,0.00,,---,0.00,VWS V14.00,2013-02-04 19:59:00,
2013-02-04 12:04:00,49.8,40.1,29.53,ESE,105,0.0,0.0,69,0.00,,---,0.00,VWS V14.00,2013-02-04 20:04:00,
2013-02-04 12:09:00,49.8,39.7,29.53,ESE,104,0.0,0.0,68,0.00,,---,0.00,VWS V14.00,2013-02-04 20:09:00,
2013-02-04 12:14:00,49.6,39.5,29.53,ESE,117,0.0,0.0,68,0.00,,---,0.00,VWS V14.00,2013-02-04 20:14:00,
2013-02-04 12:19:00,49.8,39.3,29.53,ESE,108,0.0,0.0,67,0.00,,---,0.00,VWS V14.00,2013-02-04 20:19:00,
2013-02-04 12:24:00,50.0,39.5,29.53,SSE,153,0.0,0.0,67,0.00,,---,0.00,VWS V14.00,2013-02-04 20:24:00,
2013-02-04 12:29:00,50.4,39.5,29.53,South,178,0.0,0.0,66,0.00,,---,0.00,VWS V14.00,2013-02-04 20:29:00,
2013-02-04 12:34:00,51.1,40.5,29.50,SE,133,0.0,0.0,67,0.00,,---,0.00,VWS V14.00,2013-02-04 20:34:00,
2013-02-04 12:39:00,51.8,40.8,29.50,ENE,78,0.0,0.0,66,0.00,,---,0.00,VWS V14.00,2013-02-04 20:39:00,
2013-02-04 12:44:00,52.2,40.0,29.50,ESE,102,0.0,0.0,63,0.00,,---,0.00,VWS V14.00,2013-02-04 20:44:00,
2013-02-04 12:49:00,52.0,39.0,29.50,SSE,168,0.0,0.0,61,0.00,,---,0.00,VWS V14.00,2013-02-04 20:49:00,
2013-02-04 12:54:00,52.0,38.5,29.50,ESE,119,0.0,0.0,60,0.00,,---,0.00,VWS V14.00,2013-02-04 20:54:00,
2013-02-04 12:59:00,51.8,38.8,29.50,SSE,150,0.0,0.0,61,0.00,,---,0.00,VWS V14.00,2013-02-04 20:59:00,
2013-02-04 13:04:00,51.6,38.6,29.50,ESE,114,0.0,0.0,61,0.00,,---,0.00,VWS V14.00,2013-02-04 21:04:00,
2013-02-04 13:09:00,51.8,39.2,29.50,SSW,192,0.0,0.0,62,0.00,,---,0.00,VWS V14.00,2013-02-04 21:09:00,
2013-02-04 13:14:00,52.0,39.0,29.50,ESE,115,0.0,0.0,61,0.00,,---,0.00,VWS V14.00,2013-02-04 21:14:00,
2013-02-04 13:19:00,52.3,39.3,29.47,ENE,71,0.0,0.0,61,0.00,,---,0.00,VWS V14.00,2013-02-04 21:19:00,
2013-02-04 13:24:00,52.3,38.9,29.47,SSE,151,0.0,0.0,60,0.00,,---,0.00,VWS V14.00,2013-02-04 21:24:00,
2013-02-04 13:29:00,52.2,38.7,29.47,SSE,155,0.0,0.0,60,0.00,,---,0.00,VWS V14.00,2013-02-04 21:29:00,
2013-02-04 13:34:00,52.7,39.6,29.47,SSE,155,0.0,0.0,61,0.00,,---,0.00,VWS V14.00,2013-02-04 21:34:00,
2013-02-04 13:39:00,53.8,40.7,29.47,SSE,147,0.0,0.0,61,0.00,,---,0.00,VWS V14.00,2013-02-04 21:39:00,
2013-02-04 13:44:00,55.2,41.6,29.47,SE,141,0.0,0.0,60,0.00,,---,0.00,VWS V14.00,2013-02-04 21:44:00,
2013-02-04 13:49:00,56.7,42.1,29.47,SSE,165,0.0,0.0,58,0.00,,---,0.00,VWS V14.00,2013-02-04 21:49:00,
2013-02-04 13:54:00,57.2,41.7,29.47,South,170,0.0,0.0,56,0.00,,---,0.00,VWS V14.00,2013-02-04 21:54:00,
2013-02-04 13:59:00,58.3,42.2,29.47,ENE,69,0.0,0.0,55,0.00,,---,0.00,VWS V14.00,2013-02-04 21:59:00,
2013-02-04 14:05:00,58.5,41.4,29.44,South,180,0.0,0.0,53,0.00,,---,0.00,VWS V14.00,2013-02-04 22:05:00,
2013-02-04 14:10:00,58.5,40.4,29.44,South,171,0.0,0.0,51,0.00,,---,0.00,VWS V14.00,2013-02-04 22:10:00,
2013-02-04 14:15:00,59.4,40.7,29.44,SW,226,0.0,0.0,50,0.00,,---,0.00,VWS V14.00,2013-02-04 22:15:00,
2013-02-04 14:20:00,60.4,41.7,29.44,SW,224,0.0,0.0,50,0.00,,---,0.00,VWS V14.00,2013-02-04 22:20:00,
2013-02-04 14:25:00,60.6,40.8,29.44,SSE,163,0.0,0.0,48,0.00,,---,0.00,VWS V14.00,2013-02-04 22:25:00,
2013-02-04 14:30:00,60.1,39.8,29.44,SSE,151,0.0,0.0,47,0.00,,---,0.00,VWS V14.00,2013-02-04 22:30:00,
2013-02-04 14:35:00,59.0,38.3,29.44,SSE,150,0.0,0.0,46,0.00,,---,0.00,VWS V14.00,2013-02-04 22:35:00,
2013-02-04 14:40:00,58.1,38.0,29.44,SSE,150,0.0,0.0,47,0.00,,---,0.00,VWS V14.00,2013-02-04 22:40:00,
2013-02-04 14:45:00,57.4,37.9,29.44,SSE,150,0.0,0.0,48,0.00,,---,0.00,VWS V14.00,2013-02-04 22:45:00,
2013-02-04 14:50:00,56.8,37.9,29.44,SSE,150,0.0,0.0,49,0.00,,---,0.00,VWS V14.00,2013-02-04 22:50:00,
2013-02-04 14:55:00,56.5,37.6,29.44,SSE,150,0.0,0.0,49,0.00,,---,0.00,VWS V14.00,2013-02-04 22:55:00,
2013-02-04 15:00:00,56.1,37.8,29.44,SSE,150,0.0,0.0,50,0.00,,---,0.00,VWS V14.00,2013-02-04 23:00:00,
2013-02-04 15:05:00,55.8,37.9,29.41,SSE,150,0.0,0.0,51,0.00,,---,0.00,VWS V14.00,2013-02-04 23:05:00,
2013-02-04 15:10:00,55.6,37.8,29.41,SSE,150,0.0,0.0,51,0.00,,---,0.00,VWS V14.00,2013-02-04 23:10:00,
2013-02-04 15:15:00,55.2,37.9,29.41,SSE,150,0.0,0.0,52,0.00,,---,0.00,VWS V14.00,2013-02-04 23:15:00,
2013-02-04 15:20:00,54.9,37.6,29.41,SSE,150,0.0,0.0,52,0.00,,---,0.00,VWS V14.00,2013-02-04 23:20:00,
2013-02-04 15:25:00,54.5,37.2,29.41,SSE,150,0.0,0.0,52,0.00,,---,0.00,VWS V14.00,2013-02-04 23:25:00,
2013-02-04 15:30:00,54.3,37.6,29.41,SSE,150,0.0,0.0,53,0.00,,---,0.00,VWS V14.00,2013-02-04 23:30:00,
2013-02-04 15:35:00,54.1,37.4,29.41,SSE,150,0.0,0.0,53,0.00,,---,0.00,VWS V14.00,2013-02-04 23:35:00,
2013-02-04 15:40:00,54.0,37.7,29.41,SSE,150,0.0,0.0,54,0.00,,---,0.00,VWS V14.00,2013-02-04 23:40:00,
2013-02-04 15:45:00,54.0,37.7,29.41,SSE,150,0.0,0.0,54,0.00,,---,0.00,VWS V14.00,2013-02-04 23:45:00,
2013-02-04 15:50:00,53.8,37.5,29.41,SSE,150,0.0,0.0,54,0.00,,---,0.00,VWS V14.00,2013-02-04 23:50:00,
2013-02-04 15:55:00,53.8,38.0,29.41,SSE,150,0.0,0.0,55,0.00,,---,0.00,VWS V14.00,2013-02-04 23:55:00,
2013-02-04 16:00:00,53.6,37.8,29.41,SSE,150,0.0,0.0,55,0.00,,---,0.00,VWS V14.00,2013-02-05 00:00:00,
2013-02-04 16:05:00,53.6,38.3,29.41,SSE,150,0.0,0.0,56,0.00,,---,0.00,VWS V14.00,2013-02-05 00:05:00,
2013-02-04 16:10:00,53.4,38.6,29.41,SSE,150,0.0,0.0,57,0.00,,---,0.00,VWS V14.00,2013-02-05 00:10:00,
2013-02-04 16:15:00,53.4,38.6,29.41,SSE,150,0.0,0.0,57,0.00,,---,0.00,VWS V14.00,2013-02-05 00:15:00,
2013-02-04 16:20:00,53.2,38.9,29.41,West,265,0.0,0.0,58,0.00,,---,0.00,VWS V14.00,2013-02-05 00:20:00,
2013-02-04 16:25:00,53.1,38.7,29.41,West,265,0.0,0.0,58,0.00,,---,0.00,VWS V14.00,2013-02-05 00:25:00,
2013-02-04 16:30:00,52.9,39.0,29.41,West,265,0.0,0.0,59,0.00,,---,0.00,VWS V14.00,2013-02-05 00:30:00,
2013-02-04 16:35:00,52.9,38.5,29.41,West,265,0.0,0.0,58,0.00,,---,0.00,VWS V14.00,2013-02-05 00:35:00,
2013-02-04 16:40:00,52.7,38.3,29.41,West,265,0.0,0.0,58,0.00,,---,0.00,VWS V14.00,2013-02-05 00:40:00,
2013-02-04 16:45:00,52.7,38.3,29.41,West,265,0.0,0.0,58,0.00,,---,0.00,VWS V14.00,2013-02-05 00:45:00,
2013-02-04 16:50:00,52.7,38.8,29.41,West,265,0.0,0.0,59,0.00,,---,0.00,VWS V14.00,2013-02-05 00:50:00,
2013-02-04 16:55:00,52.5,38.6,29.41,West,265,0.0,0.0,59,0.00,,---,0.00,VWS V14.00,2013-02-05 00:55:00,
2013-02-04 17:00:00,52.3,38.5,29.41,West,265,0.0,0.0,59,0.00,,---,0.00,VWS V14.00,2013-02-05 01:00:00,
2013-02-04 17:05:00,52.2,38.7,29.38,West,265,0.0,0.0,60,0.00,,---,0.00,VWS V14.00,2013-02-05 01:05:00,
2013-02-04 17:10:00,52.2,38.7,29.38,West,265,0.0,0.0,60,0.00,,---,0.00,VWS V14.00,2013-02-05 01:10:00,
2013-02-04 17:15:00,52.2,38.7,29.38,West,265,0.0,0.0,60,0.00,,---,0.00,VWS V14.00,2013-02-05 01:15:00,
2013-02-04 17:20:00,52.0,38.5,29.41,West,265,0.0,0.0,60,0.00,,---,0.00,VWS V14.00,2013-02-05 01:20:00,
2013-02-04 17:25:00,52.0,38.5,29.41,West,265,0.0,0.0,60,0.00,,---,0.00,VWS V14.00,2013-02-05 01:25:00,
2013-02-04 17:30:00,52.0,39.0,29.41,West,265,0.0,0.0,61,0.00,,---,0.00,VWS V14.00,2013-02-05 01:30:00,
2013-02-04 17:35:00,52.0,39.0,29.38,West,265,0.0,0.0,61,0.00,,---,0.00,VWS V14.00,2013-02-05 01:35:00,
2013-02-04 17:40:00,51.8,38.8,29.38,West,265,0.0,0.0,61,0.00,,---,0.00,VWS V14.00,2013-02-05 01:40:00,
2013-02-04 17:45:00,51.8,38.8,29.38,West,265,0.0,0.0,61,0.00,,---,0.00,VWS V14.00,2013-02-05 01:45:00,
2013-02-04 17:50:00,51.8,39.2,29.38,West,265,0.0,0.0,62,0.00,,---,0.00,VWS V14.00,2013-02-05 01:50:00,
2013-02-04 17:55:00,51.6,39.5,29.38,West,265,0.0,0.0,63,0.00,,---,0.00,VWS V14.00,2013-02-05 01:55:00,
2013-02-04 18:00:00,51.6,39.5,29.38,West,265,0.0,0.0,63,0.00,,---,0.00,VWS V14.00,2013-02-05 02:00:00,
2013-02-04 18:05:00,51.6,39.5,29.38,West,265,0.0,0.0,63,0.00,,---,0.00,VWS V14.00,2013-02-05 02:05:00,
2013-02-04 18:10:00,51.6,39.5,29.38,West,265,0.0,0.0,63,0.00,,---,0.00,VWS V14.00,2013-02-05 02:10:00,
2013-02-04 18:15:00,51.6,39.5,29.38,West,265,0.0,0.0,63,0.00,,---,0.00,VWS V14.00,2013-02-05 02:15:00,
2013-02-04 18:20:00,51.6,39.5,29.38,West,265,0.0,0.0,63,0.00,,---,0.00,VWS V14.00,2013-02-05 02:20:00,
2013-02-04 18:25:00,51.6,39.5,29.38,West,265,0.0,0.0,63,0.00,,---,0.00,VWS V14.00,2013-02-05 02:25:00,
2013-02-04 18:30:00,51.4,39.3,29.38,West,265,0.0,0.0,63,0.00,,---,0.00,VWS V14.00,2013-02-05 02:30:00,
2013-02-04 18:35:00,51.3,39.1,29.38,West,265,0.0,0.0,63,0.00,,---,0.00,VWS V14.00,2013-02-05 02:35:00,
2013-02-04 18:40:00,51.3,39.1,29.38,West,265,0.0,0.0,63,0.00,,---,0.00,VWS V14.00,2013-02-05 02:40:00,
2013-02-04 18:45:00,51.1,38.9,29.38,West,265,0.0,0.0,63,0.00,,---,0.00,VWS V14.00,2013-02-05 02:45:00,
2013-02-04 18:50:00,50.9,38.8,29.38,WSW,249,0.0,0.0,63,0.00,,---,0.00,VWS V14.00,2013-02-05 02:50:00,
2013-02-04 18:55:00,50.5,38.8,29.38,ESE,109,0.0,0.0,64,0.00,,---,0.00,VWS V14.00,2013-02-05 02:55:00,
2013-02-04 19:00:00,50.4,38.7,29.38,East,99,0.0,0.0,64,0.00,,---,0.00,VWS V14.00,2013-02-05 03:00:00,
2013-02-04 19:05:00,50.2,38.5,29.35,East,95,0.0,0.0,64,0.00,,---,0.00,VWS V14.00,2013-02-05 03:05:00,
2013-02-04 19:10:00,50.2,38.9,29.35,East,98,0.0,0.0,65,0.00,,---,0.00,VWS V14.00,2013-02-05 03:10:00,
2013-02-04 19:15:00,50.2,38.9,29.35,East,90,0.0,0.0,65,0.00,,---,0.00,VWS V14.00,2013-02-05 03:15:00,
2013-02-04 19:20:00,50.0,38.7,29.35,SSE,152,0.0,0.0,65,0.00,,---,0.00,VWS V14.00,2013-02-05 03:20:00,
2013-02-04 19:25:00,50.2,38.9,29.35,SSE,147,0.0,0.0,65,0.00,,---,0.00,VWS V14.00,2013-02-05 03:25:00,
2013-02-04 19:30:00,50.2,39.3,29.35,East,97,0.0,0.0,66,0.00,,---,0.00,VWS V14.00,2013-02-05 03:30:00,
2013-02-04 19:35:00,50.2,39.3,29.32,East,100,0.0,0.0,66,0.00,,---,0.00,VWS V14.00,2013-02-05 03:35:00,
2013-02-04 19:40:00,50.0,39.5,29.32,East,87,0.0,0.0,67,0.00,,---,0.00,VWS V14.00,2013-02-05 03:40:00,
2013-02-04 19:45:00,50.0,39.5,29.32,East,99,0.0,0.0,67,0.00,,---,0.00,VWS V14.00,2013-02-05 03:45:00,
2013-02-04 19:50:00,50.2,40.0,29.32,East,82,0.0,0.0,68,0.00,,---,0.00,VWS V14.00,2013-02-05 03:50:00,
2013-02-04 19:55:00,50.0,39.9,29.32,East,98,0.0,0.0,68,0.00,,---,0.00,VWS V14.00,2013-02-05 03:55:00,
2013-02-04 20:00:00,50.0,40.2,29.32,ESE,104,0.0,0.0,69,0.00,,---,0.00,VWS V14.00,2013-02-05 04:00:00,
2013-02-04 20:05:00,50.0,40.2,29.32,East,84,0.0,0.0,69,0.00,,---,0.00,VWS V14.00,2013-02-05 04:05:00,
2013-02-04 20:11:00,50.0,40.2,29.32,East,86,0.0,0.0,69,0.00,,---,0.00,VWS V14.00,2013-02-05 04:11:00,
2013-02-04 20:16:00,50.0,40.2,29.32,ESE,105,0.0,0.0,69,0.00,,---,0.00,VWS V14.00,2013-02-05 04:16:00,
2013-02-04 20:21:00,50.0,40.2,29.29,ESE,102,0.0,0.0,69,0.00,,---,0.00,VWS V14.00,2013-02-05 04:21:00,
2013-02-04 20:26:00,50.2,40.4,29.29,ENE,76,0.0,0.0,69,0.00,,---,0.00,VWS V14.00,2013-02-05 04:26:00,
2013-02-04 20:31:00,50.2,40.4,29.29,ENE,76,0.0,0.0,69,0.00,,---,0.00,VWS V14.00,2013-02-05 04:31:00,
2013-02-04 20:36:00,50.2,40.4,29.29,ENE,76,0.0,0.0,69,0.00,,---,0.00,VWS V14.00,2013-02-05 04:36:00,
2013-02-04 20:41:00,50.2,40.4,29.29,ENE,76,0.0,0.0,69,0.00,,---,0.00,VWS V14.00,2013-02-05 04:41:00,
2013-02-04 20:46:00,50.2,40.4,29.29,East,89,0.0,0.0,69,0.00,,---,0.00,VWS V14.00,2013-02-05 04:46:00,
2013-02-04 20:51:00,50.2,40.4,29.29,ESE,111,0.0,0.0,69,0.00,,---,0.00,VWS V14.00,2013-02-05 04:51:00,
2013-02-04 20:56:00,50.4,40.6,29.29,SW,233,0.0,0.0,69,0.00,,---,0.00,VWS V14.00,2013-02-05 04:56:00,
2013-02-04 21:00:00,50.4,40.6,29.29,SW,233,0.0,0.0,69,0.00,,---,0.00,VWS V14.00,2013-02-05 05:00:00,
2013-02-04 21:01:00,50.5,40.8,29.29,SW,233,0.0,0.0,69,0.00,,---,0.00,VWS V14.00,2013-02-05 05:01:00,
2013-02-04 21:06:00,50.5,40.8,29.29,WNW,287,0.0,0.0,69,0.00,,---,0.00,VWS V14.00,2013-02-05 05:06:00,
2013-02-04 21:11:00,50.5,40.8,29.29,West,272,0.0,0.0,69,0.00,,---,0.00,VWS V14.00,2013-02-05 05:11:00,
2013-02-04 21:16:00,50.5,40.8,29.29,WNW,283,0.0,0.0,69,0.00,,---,0.00,VWS V14.00,2013-02-05 05:16:00,
2013-02-04 21:21:00,50.5,40.8,29.29,WNW,283,0.0,0.0,69,0.00,,---,0.00,VWS V14.00,2013-02-05 05:21:00,
2013-02-04 21:26:00,50.4,40.6,29.29,WNW,298,0.0,0.0,69,0.00,,---,0.00,VWS V14.00,2013-02-05 05:26:00,
2013-02-04 21:31:00,50.5,41.1,29.29,WNW,299,0.0,0.0,70,0.00,,---,0.00,VWS V14.00,2013-02-05 05:31:00,
2013-02-04 21:36:00,50.5,41.1,29.29,WNW,299,0.0,0.0,70,0.00,,---,0.00,VWS V14.00,2013-02-05 05:36:00,
2013-02-04 21:41:00,50.7,41.3,29.29,WNW,298,0.0,0.0,70,0.00,,---,0.00,VWS V14.00,2013-02-05 05:41:00,
2013-02-04 21:46:00,50.7,41.3,29.29,WNW,299,0.0,0.0,70,0.00,,---,0.00,VWS V14.00,2013-02-05 05:46:00,
2013-02-04 21:51:00,50.9,41.5,29.29,WNW,299,0.0,0.0,70,0.00,,---,0.00,VWS V14.00,2013-02-05 05:51:00,
2013-02-04 21:56:00,50.7,41.3,29.29,WNW,299,0.0,0.0,70,0.00,,---,0.00,VWS V14.00,2013-02-05 05:56:00,
2013-02-04 22:01:00,50.7,40.9,29.29,WNW,299,0.0,0.0,69,0.00,,---,0.00,VWS V14.00,2013-02-05 06:01:00,
2013-02-04 22:06:00,50.7,40.9,29.29,WNW,299,0.0,0.0,69,0.00,,---,0.00,VWS V14.00,2013-02-05 06:06:00,
2013-02-04 22:11:00,50.7,40.9,29.29,WNW,299,0.0,0.0,69,0.00,,---,0.00,VWS V14.00,2013-02-05 06:11:00,
2013-02-04 22:16:00,50.7,40.9,29.29,WNW,300,0.0,0.0,69,0.00,,---,0.00,VWS V14.00,2013-02-05 06:16:00,
2013-02-04 22:21:00,50.7,40.9,29.29,WNW,299,0.0,0.0,69,0.00,,---,0.00,VWS V14.00,2013-02-05 06:21:00,
2013-02-04 22:27:00,50.7,40.9,29.29,WNW,299,0.0,0.0,69,0.00,,---,0.00,VWS V14.00,2013-02-05 06:27:00,
2013-02-04 22:32:00,50.7,40.9,29.29,WNW,299,0.0,0.0,69,0.00,,---,0.00,VWS V14.00,2013-02-05 06:32:00,
2013-02-04 22:37:00,50.7,40.9,29.29,WNW,299,0.0,0.0,69,0.00,,---,0.00,VWS V14.00,2013-02-05 06:37:00,
2013-02-04 22:42:00,50.7,41.3,29.29,WNW,299,0.0,0.0,70,0.00,,---,0.00,VWS V14.00,2013-02-05 06:42:00,
2013-02-04 22:47:00,50.7,41.3,29.29,WNW,299,0.0,0.0,70,0.00,,---,0.00,VWS V14.00,2013-02-05 06:47:00,
2013-02-04 22:52:00,50.7,40.9,29.29,WNW,299,0.0,0.0,69,0.00,,---,0.00,VWS V14.00,2013-02-05 06:52:00,
2013-02-04 22:57:00,50.5,40.8,29.29,WNW,299,0.0,0.0,69,0.00,,---,0.00,VWS V14.00,2013-02-05 06:57:00,
2013-02-04 23:02:00,50.4,40.6,29.29,WNW,299,0.0,0.0,69,0.00,,---,0.00,VWS V14.00,2013-02-05 07:02:00,
2013-02-04 23:07:00,50.2,40.4,29.29,WNW,299,0.0,0.0,69,0.00,,---,0.00,VWS V14.00,2013-02-05 07:07:00,
2013-02-04 23:12:00,50.2,40.4,29.29,West,272,0.0,0.0,69,0.00,,---,0.00,VWS V14.00,2013-02-05 07:12:00,
2013-02-04 23:17:00,50.0,40.2,29.29,West,267,0.0,0.0,69,0.00,,---,0.00,VWS V14.00,2013-02-05 07:17:00,
2013-02-04 23:22:00,49.8,40.1,29.29,West,267,0.0,0.0,69,0.00,,---,0.00,VWS V14.00,2013-02-05 07:22:00,
2013-02-04 23:27:00,49.6,39.9,29.29,West,267,0.0,0.0,69,0.00,,---,0.00,VWS V14.00,2013-02-05 07:27:00,
2013-02-04 23:32:00,49.6,40.3,29.29,SW,229,0.0,0.0,70,0.00,,---,0.00,VWS V14.00,2013-02-05 07:32:00,
2013-02-04 23:37:00,49.5,40.1,29.29,SE,141,0.0,0.0,70,0.00,,---,0.00,VWS V14.00,2013-02-05 07:37:00,
2013-02-04 23:42:00,49.1,40.1,29.29,SE,144,0.0,0.0,71,0.00,,---,0.00,VWS V14.00,2013-02-05 07:42:00,
2013-02-04 23:47:00,49.1,40.1,29.29,SSE,153,0.0,0.0,71,0.00,,---,0.00,VWS V14.00,2013-02-05 07:47:00,
2013-02-04 23:52:00,48.9,39.9,29.29,SSE,154,0.0,0.0,71,0.00,,---,0.00,VWS V14.00,2013-02-05 07:52:00,
2013-02-04 23:57:00,48.7,40.1,29.29,ESE,117,0.0,0.0,72,0.00,,---,0.00,VWS V14.00,2013-02-05 07:57:00,